| time (UTC) | temp C | wind direction | speed KPH | gust KPH | rain 1hr cm | rain 24hr cm | rain mn cm | humidity % | barometer mb |
| 20260506024528 | -17 | 0.0 | 0.0 | 0.00 | 0.00 | 0.00 | 1011.9 | ||
| 20260506023022 | -17 | 0.0 | 0.0 | 0.00 | 0.00 | 0.00 | 1011.9 | ||
| 20260506021519 | 1 | 41 | 6.4 | 0.0 | 0.00 | 0.00 | 0.00 | 74 | 1011.9 |
| 20260506020016 | 1 | 44 | 6.4 | 0.0 | 0.00 | 0.00 | 0.00 | 74 | 1011.9 |
| 20260506014517 | 2 | 46 | 6.4 | 0.0 | 0.00 | 0.00 | 0.00 | 74 | 1011.7 |
| 20260506013013 | 1 | 35 | 4.8 | 0.0 | 0.00 | 0.00 | 0.00 | 75 | 1011.4 |
| 20260506011515 | 2 | 56 | 4.8 | 0.0 | 0.00 | 0.00 | 0.00 | 74 | 1011.5 |
| 20260506010013 | 2 | 55 | 6.4 | 0.0 | 0.00 | 0.00 | 0.00 | 74 | 1011.5 |
| 20260506004525 | 2 | 57 | 4.8 | 0.0 | 0.00 | 0.00 | 0.00 | 75 | 1011.7 |
| 20260506003010 | 2 | 51 | 4.8 | 0.0 | 0.00 | 0.00 | 0.00 | 76 | 1011.5 |
| 20260506001507 | 2 | 63 | 4.8 | 0.0 | 0.00 | 0.00 | 0.00 | 75 | 1011.5 |
| 20260506000004 | 2 | 26 | 6.4 | 0.0 | 0.00 | 0.00 | 0.00 | 74 | 1011.4 |
| 20260505234637 | 3 | 37 | 6.4 | 0.0 | 0.00 | 0.00 | 0.00 | 70 | 1011.6 |
| 20260505233107 | 3 | 5 | 6.4 | 0.0 | 0.00 | 0.00 | 0.00 | 69 | 1011.6 |
| 20260505231557 | 3 | 24 | 6.4 | 0.0 | 0.00 | 0.00 | 0.00 | 69 | 1011.6 |
| 20260505230051 | 3 | 32 | 4.8 | 0.0 | 0.00 | 0.00 | 0.00 | 70 | 1011.8 |
| 20260505224550 | 4 | 40 | 4.8 | 0.0 | 0.00 | 0.00 | 0.00 | 69 | 1011.7 |
| 20260505223050 | 5 | 22 | 4.8 | 0.0 | 0.00 | 0.00 | 0.00 | 67 | 1011.6 |
| 20260505221550 | 5 | 38 | 4.8 | 0.0 | 0.00 | 0.00 | 0.00 | 66 | 1011.8 |
| 20260505220101 | 4 | 31 | 4.8 | 0.0 | 0.00 | 0.00 | 0.00 | 67 | 1011.8 |
| 20260505214545 | 5 | 40 | 3.2 | 0.0 | 0.00 | 0.00 | 0.00 | 63 | 1011.9 |
| 20260505213043 | 6 | 15 | 4.8 | 0.0 | 0.00 | 0.00 | 0.00 | 61 | 1011.9 |
| 20260505211546 | 6 | 9 | 4.8 | 0.0 | 0.00 | 0.00 | 0.00 | 60 | 1011.7 |
| 20260505210040 | 6 | 349 | 1.6 | 0.0 | 0.00 | 0.00 | 0.00 | 57 | 1011.7 |
| 20260505204539 | 6 | 351 | 1.6 | 0.0 | 0.00 | 0.00 | 0.00 | 56 | 1011.6 |
| 20260505203038 | 6 | 336 | 3.2 | 0.0 | 0.00 | 0.00 | 0.00 | 56 | 1011.6 |
| 20260505201536 | 6 | 329 | 3.2 | 0.0 | 0.00 | 0.00 | 0.00 | 56 | 1011.5 |
| 20260505200034 | 7 | 5 | 3.2 | 0.0 | 0.00 | 0.00 | 0.00 | 55 | 1011.5 |
| 20260505194535 | 7 | 11 | 4.8 | 0.0 | 0.00 | 0.00 | 0.00 | 49 | 1011.4 |
| 20260505193038 | 7 | 355 | 4.8 | 0.0 | 0.00 | 0.00 | 0.00 | 45 | 1011.4 |
| 20260505191539 | 8 | 342 | 4.8 | 0.0 | 0.00 | 0.00 | 0.00 | 45 | 1011.3 |
| 20260505190027 | 8 | 339 | 4.8 | 0.0 | 0.00 | 0.00 | 0.00 | 43 | 1011.2 |
| 20260505184527 | 8 | 313 | 4.8 | 0.0 | 0.00 | 0.00 | 0.00 | 43 | 1011.1 |
| 20260505183029 | 9 | 315 | 3.2 | 0.0 | 0.00 | 0.00 | 0.00 | 45 | 1011.0 |
| 20260505181525 | 9 | 295 | 3.2 | 0.0 | 0.00 | 0.00 | 0.00 | 47 | 1011.0 |
| 20260505180040 | 10 | 309 | 6.4 | 0.0 | 0.00 | 0.00 | 0.00 | 44 | 1011.0 |
| 20260505174535 | 9 | 321 | 4.8 | 0.0 | 0.00 | 0.00 | 0.00 | 44 | 1010.9 |
| 20260505173024 | 9 | 308 | 4.8 | 0.0 | 0.00 | 0.00 | 0.00 | 44 | 1010.8 |
| 20260505171530 | 10 | 281 | 6.4 | 0.0 | 0.00 | 0.00 | 0.00 | 47 | 1010.8 |
| 20260505170028 | 10 | 289 | 8.0 | 0.0 | 0.00 | 0.00 | 0.00 | 46 | 1011.0 |
| 20260505164521 | 10 | 323 | 6.4 | 0.0 | 0.00 | 0.00 | 0.00 | 43 | 1011.0 |
| 20260505163022 | 10 | 348 | 8.0 | 0.0 | 0.00 | 0.00 | 0.00 | 38 | 1010.9 |
| 20260505161521 | 10 | 343 | 8.0 | 0.0 | 0.00 | 0.00 | 0.00 | 45 | 1010.9 |
| 20260505153022 | 11 | 355 | 9.7 | 0.0 | 0.00 | 0.00 | 0.00 | 50 | 1011.0 |
| 20260505151516 | 11 | 301 | 12.9 | 0.0 | 0.00 | 0.00 | 0.00 | 49 | 1011.1 |
| 20260505124509 | 12 | 321 | 17.7 | 0.0 | 0.00 | 0.00 | 0.00 | 52 | 1011.1 |
| 20260505123007 | 13 | 338 | 16.1 | 0.0 | 0.00 | 0.00 | 0.00 | 51 | 1011.2 |
| 20260505121509 | 13 | 323 | 16.1 | 0.0 | 0.00 | 0.00 | 0.00 | 51 | 1011.4 |
| 20260505120005 | 13 | 277 | 14.5 | 0.0 | 0.00 | 0.00 | 0.00 | 48 | 1011.2 |
| 20260505114504 | 14 | 299 | 12.9 | 0.0 | 0.00 | 0.00 | 0.00 | 46 | 1011.1 |
| 20260505113003 | 14 | 306 | 12.9 | 0.0 | 0.00 | 0.00 | 0.00 | 45 | 1011.1 |
| 20260505111503 | 15 | 325 | 12.9 | 0.0 | 0.00 | 0.00 | 0.00 | 47 | 1011.1 |
| 20260505101559 | 16 | 333 | 17.7 | 0.0 | 0.00 | 0.00 | 0.00 | 42 | 1011.2 |
| 20260505100058 | 17 | 293 | 12.9 | 0.0 | 0.00 | 0.00 | 0.00 | 41 | 1011.0 |
| 20260505094556 | 17 | 291 | 11.3 | 0.0 | 0.00 | 0.00 | 0.00 | 43 | 1010.9 |
| 20260505093055 | 17 | 292 | 11.3 | 0.0 | 0.00 | 0.00 | 0.00 | 41 | 1010.9 |
| 20260505091556 | 16 | 314 | 14.5 | 0.0 | 0.00 | 0.00 | 0.00 | 41 | 1010.9 |
| 20260505090059 | 16 | 288 | 16.1 | 0.0 | 0.00 | 0.00 | 0.00 | 42 | 1011.0 |
| 20260505084553 | 17 | 298 | 12.9 | 0.0 | 0.00 | 0.00 | 0.00 | 43 | 1010.9 |
| 20260505083102 | 17 | 304 | 12.9 | 0.0 | 0.00 | 0.00 | 0.00 | 40 | 1010.7 |
| 20260505081554 | 17 | 272 | 12.9 | 0.0 | 0.00 | 0.00 | 0.00 | 41 | 1010.5 |
| 20260505080047 | 16 | 307 | 12.9 | 0.0 | 0.00 | 0.00 | 0.00 | 44 | 1010.3 |
| 20260505074546 | 16 | 246 | 11.3 | 0.0 | 0.00 | 0.00 | 0.00 | 45 | 1010.2 |
| 20260505073044 | 16 | 316 | 12.9 | 0.0 | 0.00 | 0.00 | 0.00 | 46 | 1010.1 |
| 20260505071542 | 15 | 313 | 11.3 | 0.0 | 0.00 | 0.00 | 0.00 | 48 | 1010.1 |
| 20260505070045 | 15 | 288 | 9.7 | 0.0 | 0.00 | 0.00 | 0.00 | 50 | 1010.1 |
| 20260505064551 | 14 | 355 | 11.3 | 0.0 | 0.00 | 0.00 | 0.00 | 51 | 1009.9 |
| 20260505063031 | 13 | 302 | 11.3 | 0.0 | 0.00 | 0.00 | 0.00 | 56 | 1009.9 |
| 20260505061536 | 13 | 350 | 11.3 | 0.0 | 0.00 | 0.00 | 0.00 | 57 | 1009.8 |
| 20260505060027 | 12 | 313 | 12.9 | 0.0 | 0.00 | 0.00 | 0.00 | 62 | 1009.6 |
| 20260505054518 | 11 | 347 | 11.3 | 0.0 | 0.00 | 0.00 | 0.00 | 66 | 1009.6 |
| 20260505053016 | 10 | 348 | 14.5 | 0.0 | 0.00 | 0.00 | 0.00 | 71 | 1009.8 |
| 20260505051513 | 8 | 298 | 12.9 | 0.0 | 0.00 | 0.00 | 0.00 | 75 | 1009.5 |
| 20260505041506 | 7 | 327 | 14.5 | 0.0 | 0.00 | 0.00 | 0.00 | 83 | 1009.2 |
| 20260505040008 | 7 | 309 | 16.1 | 0.0 | 0.00 | 0.00 | 0.00 | 83 | 1009.2 |
| 20260505034504 | 7 | 311 | 16.1 | 0.0 | 0.00 | 0.00 | 0.00 | 84 | 1009.2 |
| 20260505033001 | -17 | 0.0 | 0.0 | 0.00 | 0.00 | 0.00 | 1009.2 | ||
| 20260505031606 | -17 | 0.0 | 0.0 | 0.00 | 0.00 | 0.00 | 1009.1 | ||
| 20260505030053 | -17 | 0.0 | 0.0 | 0.00 | 0.00 | 0.00 | 1009.2 |